Regional Weather Roundup
Issued by NWS

Home | Current Version | Previous Version | Text Only | Print | Product List | Glossary Off
Versions: 1 2 3 4 5 6 7 8 9 10 11 12 13 14 15 16 17 18 19 20 21 22 23 24 25 26 27 28 29 30 31 32 33 34 35 36 37 38 39 40 41 42 43 44 45 46 47 48 49 50

000
ASUS43 KBIS 310702
RWRND

NORTH DAKOTA REGIONAL WEATHER ROUNDUP
NATIONAL WEATHER SERVICE BISMARCK ND
200 AM CDT FRI JUL 31 2015

NOTE: "FAIR" INDICATES FEW OR NO CLOUDS BELOW 12,000 FEET WITH NO
SIGNIFICANT WEATHER AND/OR OBSTRUCTIONS TO VISIBILITY.


NDZ001>003-009>011-017-310800-
NORTHWEST NORTH DAKOTA

CITY           SKY/WX    TMP DP  RH WIND       PRES   REMARKS
WILLISTON      CLEAR     56  50  80 CALM      30.17R
MINOT          CLEAR     57  49  74 SW6       30.12S
MINOT AFB      CLEAR     54  52  92 W10       30.11S
$$

NDZ018>021-031>035-040>046-310800-
SOUTHWEST NORTH DAKOTA

CITY           SKY/WX    TMP DP  RH WIND       PRES   REMARKS
BISMARCK       CLEAR     58  52  80 CALM      30.17R
DICKINSON      CLEAR     54  46  74 S6        30.20S
GARRISON         N/A     57  50  77 CALM      30.16R
HETTINGER ARPT CLEAR     49  45  86 CALM      30.23R
$$

NDZ004>008-012>016-024-026-027-054-310800-
NORTHEAST NORTH DAKOTA

CITY           SKY/WX    TMP DP  RH WIND       PRES   REMARKS
GRAND FORKS    CLEAR     56  51  84 W7        30.02R
GRND FRKS AFB  CLEAR     59  51  76 NW7       30.03S
DEVILS LAKE    CLEAR     61  48  63 W9        30.07S
$$

NDZ022-023-025-028>030-036>039-047>053-310800-
SOUTHEAST NORTH DAKOTA

CITY           SKY/WX    TMP DP  RH WIND       PRES   REMARKS
FARGO          CLEAR     59  53  80 W7        30.05S
JAMESTOWN      CLEAR     58  51  78 NW3       30.11S
$$



USA.gov is the U.S. government's official web portal to all federal, state and local government web resources and services.